Location: Unspecified
(0.0000°N, 0.0000°E)
Time: 15:42:36
(UTC+00:00)

Vanguard 1 - All Passes

Search period start: 21 November 2017 00:00
Search period end: 01 December 2017 00:00
Orbit: 650 x 3834 km, 34.2° (Epoch: 17 November)

Date Brightness Start Highest point End Pass type
(mag) Time Alt. Az. Time Alt. Az. Time Alt. Az.
21 Nov - 00:21:09 10° WNW 00:30:54 77° SW 00:49:33 10° SE visible
21 Nov - 02:44:38 10° W 02:57:42 33° SSW 03:16:49 10° SE visible
21 Nov - 05:16:15 10° SW 05:30:46 20° S 05:45:58 10° SE visible
21 Nov - 07:48:40 10° SSW 08:05:39 25° SSE 08:18:36 10° ESE daylight
21 Nov - 10:16:13 10° SW 10:34:35 51° SSE 10:44:51 10° ENE daylight
21 Nov - 12:44:21 10° WSW 12:57:37 53° NW 13:04:49 10° NE daylight
21 Nov - 22:23:11 10° NNW 22:30:06 42° NE 22:42:19 10° ESE visible
22 Nov - 00:42:26 10° WNW 00:52:31 59° SSW 01:11:09 10° SE visible
22 Nov - 03:07:34 10° WSW 03:20:36 28° SSW 03:38:26 10° SSE visible
22 Nov - 05:40:10 10° SW 05:54:55 20° S 06:09:31 10° SE daylight
22 Nov - 08:10:29 10° SSW 08:28:48 30° SSE 08:41:51 10° ESE daylight
22 Nov - 10:37:42 10° SW 10:56:23 66° SSE 11:06:20 10° ENE daylight
22 Nov - 13:07:03 10° WSW 13:18:28 36° NW 13:25:09 10° NNE daylight
22 Nov - 22:43:38 10° NW 22:50:58 61° NE 23:04:48 10° ESE visible
23 Nov - 01:04:03 10° W 01:14:26 46° SSW 01:32:35 10° SE visible
23 Nov - 03:30:59 10° WSW 03:43:53 23° SSW 04:00:24 10° SSE visible
23 Nov - 06:03:27 10° SW 06:19:01 21° S 06:33:35 10° SE daylight
23 Nov - 08:32:01 10° SW 08:51:34 36° SSE 09:04:36 10° E daylight
23 Nov - 10:59:23 10° SW 11:17:53 85° SE 11:27:30 10° NE daylight
23 Nov - 13:30:26 10° W 13:39:17 24° NW 13:45:08 10° N daylight
23 Nov - 20:48:19 10° NNE 20:51:36 14° NE 20:55:42 10° ENE night (unlit)
23 Nov - 23:04:21 10° NW 23:11:59 85° NE 23:26:51 10° SE visible
24 Nov - 01:26:03 10° W 01:36:38 36° SSW 01:53:58 10° SE visible
24 Nov - 03:54:44 10° SW 04:07:32 21° S 04:22:57 10° SE visible
24 Nov - 06:26:02 10° SSW 06:42:53 23° SSE 06:57:45 10° ESE daylight
24 Nov - 08:53:26 10° SW 09:14:00 45° SSE 09:26:52 10° E daylight
24 Nov - 11:21:22 10° WSW 11:39:08 74° NW 11:48:24 10° NE daylight
24 Nov - 13:54:55 10° WNW 14:00:15 15° NW 14:04:23 10° N daylight
24 Nov - 21:07:33 10° N 21:12:26 24° NE 21:19:41 10° E night (unlit)
24 Nov - 23:25:22 10° WNW 23:33:16 71° SW 23:48:34 10° SE visible
25 Nov - 01:48:30 10° WSW 01:59:08 29° SSW 02:15:23 10° SSE visible
25 Nov - 04:18:28 10° SW 04:31:27 19° S 04:46:17 10° SE visible
25 Nov - 06:48:02 10° SSW 07:06:24 27° SSE 07:21:38 10° ESE daylight
25 Nov - 09:14:52 10° SW 09:36:08 56° SSE 09:48:43 10° ENE daylight
25 Nov - 11:43:43 10° WSW 12:00:10 55° NW 12:09:02 10° NE daylight
25 Nov - 21:27:35 10° NNW 21:33:12 38° NE 21:42:35 10° ESE night (unlit)
25 Nov - 23:46:41 10° WNW 23:54:50 52° SSW 00:10:02 10° SE visible
26 Nov - 02:11:25 10° WSW 02:21:58 24° SSW 02:37:00 10° SSE visible
26 Nov - 04:41:49 10° SW 04:55:32 19° S 05:10:25 10° SE visible
26 Nov - 07:09:40 10° SSW 07:29:32 33° SSE 07:45:01 10° E daylight
26 Nov - 09:36:24 10° SW 09:57:58 71° SE 10:10:12 10° ENE daylight
26 Nov - 12:06:36 10° WSW 12:21:06 39° NW 12:29:26 10° NNE daylight
26 Nov - 21:48:00 10° NW 21:54:01 60° NE 22:04:52 10° ESE night (unlit)
27 Nov - 00:08:20 10° W 00:16:41 39° SSW 00:31:19 10° SE visible
27 Nov - 02:34:44 10° SW 02:45:09 20° S 02:59:03 10° SSE visible
27 Nov - 05:04:31 10° SSW 05:19:33 21° SSE 05:35:03 10° SE visible
27 Nov - 07:31:05 10° SW 07:52:19 40° SSE 08:07:52 10° E daylight
27 Nov - 09:58:09 10° SW 10:19:33 88° SE 10:31:22 10° NE daylight
27 Nov - 12:30:07 10° W 12:42:03 28° NW 12:49:33 10° NNE daylight
27 Nov - 19:53:30 10° NNE 19:55:02 11° NE 19:56:44 10° ENE night (unlit)
27 Nov - 22:08:45 10° NW 22:15:00 90° SW 22:26:43 10° SE visible
28 Nov - 00:30:24 10° WSW 00:38:49 30° SSW 00:52:31 10° SSE visible
28 Nov - 02:58:16 10° SW 03:08:40 18° S 03:21:49 10° SE visible
28 Nov - 05:26:38 10° SSW 05:43:19 24° SSE 05:59:39 10° ESE visible
28 Nov - 07:52:26 10° SW 08:14:45 49° SSE 08:30:11 10° ENE daylight
28 Nov - 10:20:11 10° WSW 10:40:52 73° NW 10:52:17 10° NE daylight
28 Nov - 12:54:34 10° W 13:03:08 19° NW 13:09:13 10° N daylight
28 Nov - 20:12:03 10° N 20:15:54 20° NE 20:21:05 10° E night (unlit)
28 Nov - 22:29:48 10° WNW 22:36:15 62° SSW 22:48:13 10° SE visible
29 Nov - 00:52:56 10° WSW 01:01:14 23° SSW 01:13:45 10° SSE visible
29 Nov - 03:21:36 10° SSW 03:32:26 17° S 03:45:35 10° SE visible
29 Nov - 05:48:17 10° SSW 06:06:43 29° SSE 06:23:51 10° ESE daylight
29 Nov - 08:13:48 10° SW 08:36:52 61° SE 08:52:04 10° ENE daylight
29 Nov - 10:42:37 10° WSW 11:02:02 57° NW 11:12:58 10° NE daylight
29 Nov - 13:20:46 10° WNW 13:24:28 12° NW 13:27:39 10° NNW daylight
29 Nov - 20:32:00 10° NNW 20:36:41 35° NE 20:43:47 10° ESE night (unlit)
29 Nov - 22:51:11 10° W 22:57:46 43° SSW 23:09:27 10° SE visible
30 Nov - 01:15:57 10° SW 01:23:57 19° S 01:35:10 10° SSE visible
30 Nov - 03:44:23 10° SSW 03:56:20 18° S 04:10:18 10° SE visible
30 Nov - 06:09:38 10° SSW 06:29:45 35° SSE 06:47:26 10° E daylight
30 Nov - 08:35:18 10° SW 08:58:45 75° SE 09:13:35 10° ENE daylight
30 Nov - 11:05:34 10° WSW 11:23:08 42° NW 11:33:27 10° NNE daylight
30 Nov - 20:52:26 10° NW 20:57:29 61° NE 21:05:50 10° ESE night (unlit)
30 Nov - 23:12:57 10° W 23:19:33 31° SSW 23:30:28 10° SSE visible
